This demonstration page uses our WeatherBlox Daily Observations layout. Learn more.

Left ArrowRight Arrow

36.19886, -115.1175

Hourly Observations for August 6, 2015

Temp ( °F °C ) Dew Point ( °F °C ) Humidity (%) Winds ( mph kmh ) Pressure ( in mb ) Visibility ( mi km ) Precip ( " mm )
12:53 am 00:53 Clear 89 31.7 31 -0.6 12 12 W 8 13 29.80 1009 10 16 0.00 0.00
1:53 am 01:53 Clear 89 31.7 33 0.6 14 14 WSW 8 13 29.79 1009 10 16 0.00 0.00
2:53 am 02:53 Clear 90 32.2 34 1.1 14 14 WSW 5 7 29.80 1009 10 16 0.00 0.00
3:53 am 03:53 Clear 82 27.8 34 1.1 18 18 NNW 6 9 29.81 1009 10 16 0.00 0.00
4:53 am 04:53 Clear 81 27.2 34 1.1 18 18 NNW 3 6 29.81 1009 10 16 0.00 0.00
5:53 am 05:53 Sunny 78 25.6 36 2.2 22 22 N 6 9 29.83 1010 10 16 0.00 0.00
6:53 am 06:53 Sunny 80 26.7 40 4.4 24 24 N 3 6 29.84 1010 10 16 0.00 0.00
7:53 am 07:53 Sunny 85 29.4 39 3.9 20 20 Calm 29.85 1011 10 16 0.00 0.00
8:53 am 08:53 Sunny 89 31.7 39 3.9 17 17 NNE 3 6 29.86 1011 10 16 0.00 0.00
9:53 am 09:53 Sunny 94 34.4 38 3.3 14 14 E 5 7 29.85 1011 10 16 0.00 0.00
10:53 am 10:53 Sunny 97 36.1 38 3.3 13 13 SE 9 15 29.85 1011 10 16 0.00 0.00
11:53 am 11:53 Sunny 98 36.7 37 2.8 12 12 S 8 13 29.83 1010 10 16 0.00 0.00
12:53 pm 12:53 Sunny 102 38.9 33 0.6 9 9 SSW 12 19 29.80 1009 10 16 0.00 0.00
1:53 pm 13:53 Sunny 104 40 35 1.7 9 9 SW 10 17 29.78 1008 10 16 0.00 0.00
2:53 pm 14:53 Sunny 106 41.1 40 4.4 10 10 SSW 15 24 29.74 1007 10 16 0.00 0.00
3:53 pm 15:53 Sunny 103 39.4 42 5.6 12 12 W 17 28 29.73 1007 10 16 0.00 0.00
4:53 pm 16:53 Sunny 98 36.7 44 6.7 16 16 W 21 33 29.73 1007 10 16 0.00 0.00
5:29 pm 17:29 Sunny 97 36.1 44 6.7 16 16 NNW 14 22 29.56 1001 10 16 0.00 0.00
5:53 pm 17:53 Mostly Sunny 96 35.6 42 5.6 15 15 N 28 44 29.74 1007 10 16 0.00 0.00
6:53 pm 18:53 Mostly Cloudy 91 32.8 47 8.3 22 22 SE 13 20 29.82 1010 10 16 0.00 0.00
7:53 pm 19:53 Mostly Clear 90 32.2 46 7.8 22 22 N 13 20 29.83 1010 10 16 0.00 0.00
8:53 pm 20:53 Mostly Cloudy with Light Rain 88 31.1 50 10 27 27 NNW 13 20 29.84 1010 10 16 0.00 0.03
9:53 pm 21:53 Mostly Cloudy with Light Rain 87 30.6 50 10 28 28 NE 9 15 29.87 1011 10 16 0.00 0.03
10:38 pm 22:38 Mostly Cloudy 84 29 57 14 40 40 ESE 15 24 29.77 1008 10 16 0.00 0.00
10:53 pm 22:53 Mostly Cloudy 83 28.3 58 14.4 43 43 ENE 14 22 29.88 1012 10 16 0.00 0.03
11:53 pm 23:53 Cloudy with Light Rain 79 26.1 62 16.7 56 56 ENE 14 22 29.91 1013 9 14 0.00 0.03

Powered by AerisWeather